| time (UTC) | temp F | wind direction | speed MPH | gust MPH | rain 1hr in | rain 24hr in | rain mn in | humidity % | barometer mb |
| 20260504050537 | 54 | 225 | 4.0 | 8.0 | 0.00 | 0.00 | 0.00 | 46 | 1013.2 |
| 20260504050018 | 54 | 225 | 5.0 | 10.0 | 0.00 | 0.00 | 0.00 | 46 | 1013.2 |
| 20260504045517 | 54 | 248 | 5.0 | 12.0 | 0.00 | 0.00 | 0.00 | 46 | 1013.1 |
| 20260504045018 | 54 | 225 | 4.0 | 9.0 | 0.00 | 0.00 | 0.00 | 46 | 1013.1 |
| 20260504044517 | 54 | 248 | 5.0 | 10.0 | 0.00 | 0.00 | 0.00 | 46 | 1013.1 |
| 20260504044018 | 54 | 225 | 5.0 | 11.0 | 0.00 | 0.00 | 0.00 | 45 | 1013.1 |
| 20260504043517 | 54 | 225 | 3.0 | 9.0 | 0.00 | 0.00 | 0.00 | 45 | 1013.0 |
| 20260504043017 | 54 | 225 | 4.0 | 9.0 | 0.00 | 0.00 | 0.00 | 45 | 1013.0 |
| 20260504042517 | 55 | 248 | 5.0 | 10.0 | 0.00 | 0.00 | 0.00 | 45 | 1012.9 |
| 20260504042056 | 55 | 225 | 5.0 | 9.0 | 0.00 | 0.00 | 0.00 | 45 | 1013.0 |
| 20260504041516 | 55 | 225 | 4.0 | 8.0 | 0.00 | 0.00 | 0.00 | 44 | 1013.0 |
| 20260504041017 | 55 | 248 | 5.0 | 9.0 | 0.00 | 0.00 | 0.00 | 44 | 1012.9 |
| 20260504040517 | 55 | 225 | 4.0 | 11.0 | 0.00 | 0.00 | 0.00 | 44 | 1012.9 |
| 20260504040016 | 55 | 248 | 4.0 | 10.0 | 0.00 | 0.00 | 0.00 | 44 | 1012.9 |
| 20260504035518 | 55 | 225 | 4.0 | 10.0 | 0.00 | 0.00 | 0.00 | 44 | 1012.9 |
| 20260504035017 | 55 | 248 | 4.0 | 10.0 | 0.00 | 0.00 | 0.00 | 44 | 1012.8 |
| 20260504034517 | 55 | 248 | 4.0 | 8.0 | 0.00 | 0.00 | 0.00 | 44 | 1012.8 |
| 20260504034038 | 55 | 225 | 4.0 | 8.0 | 0.00 | 0.00 | 0.00 | 43 | 1012.8 |
| 20260504033517 | 55 | 225 | 5.0 | 10.0 | 0.00 | 0.00 | 0.00 | 43 | 1012.9 |
| 20260504033017 | 55 | 248 | 5.0 | 10.0 | 0.00 | 0.00 | 0.00 | 43 | 1012.8 |
| 20260504032517 | 56 | 248 | 4.0 | 9.0 | 0.00 | 0.00 | 0.00 | 42 | 1012.7 |
| 20260504032017 | 56 | 248 | 5.0 | 10.0 | 0.00 | 0.00 | 0.00 | 42 | 1012.7 |
| 20260504031518 | 56 | 225 | 3.0 | 6.0 | 0.00 | 0.00 | 0.00 | 42 | 1012.6 |
| 20260504031017 | 56 | 225 | 3.0 | 8.0 | 0.00 | 0.00 | 0.00 | 41 | 1012.6 |
| 20260504030517 | 56 | 248 | 4.0 | 9.0 | 0.00 | 0.00 | 0.00 | 41 | 1012.7 |
| 20260504030017 | 56 | 248 | 4.0 | 12.0 | 0.00 | 0.00 | 0.00 | 41 | 1012.6 |
| 20260504025517 | 56 | 248 | 5.0 | 11.0 | 0.00 | 0.00 | 0.00 | 41 | 1012.6 |
| 20260504025038 | 56 | 248 | 5.0 | 10.0 | 0.00 | 0.00 | 0.00 | 41 | 1012.6 |
| 20260504024537 | 56 | 225 | 4.0 | 10.0 | 0.00 | 0.00 | 0.00 | 40 | 1012.7 |
| 20260504024017 | 56 | 225 | 5.0 | 10.0 | 0.00 | 0.00 | 0.00 | 40 | 1012.6 |
| 20260504023517 | 56 | 225 | 3.0 | 8.0 | 0.00 | 0.00 | 0.00 | 40 | 1012.7 |
| 20260504023037 | 56 | 225 | 4.0 | 8.0 | 0.00 | 0.00 | 0.00 | 40 | 1012.6 |
| 20260504022517 | 57 | 225 | 3.0 | 9.0 | 0.00 | 0.00 | 0.00 | 39 | 1012.7 |
| 20260504022037 | 57 | 225 | 2.0 | 6.0 | 0.00 | 0.00 | 0.00 | 39 | 1012.7 |
| 20260504021517 | 57 | 225 | 3.0 | 8.0 | 0.00 | 0.00 | 0.00 | 38 | 1012.7 |
| 20260504021017 | 57 | 248 | 4.0 | 11.0 | 0.00 | 0.00 | 0.00 | 38 | 1012.7 |
| 20260504020517 | 57 | 225 | 5.0 | 12.0 | 0.00 | 0.00 | 0.00 | 38 | 1012.7 |
| 20260504020017 | 57 | 225 | 4.0 | 9.0 | 0.00 | 0.00 | 0.00 | 38 | 1012.7 |
| 20260504015518 | 57 | 225 | 3.0 | 8.0 | 0.00 | 0.00 | 0.00 | 38 | 1012.7 |
| 20260504015017 | 58 | 225 | 3.0 | 9.0 | 0.00 | 0.00 | 0.00 | 37 | 1012.7 |
| 20260504014517 | 58 | 225 | 3.0 | 8.0 | 0.00 | 0.00 | 0.00 | 36 | 1012.6 |
| 20260504014017 | 58 | 225 | 3.0 | 8.0 | 0.00 | 0.00 | 0.00 | 36 | 1012.5 |
| 20260504013518 | 58 | 248 | 3.0 | 8.0 | 0.00 | 0.00 | 0.00 | 36 | 1012.4 |
| 20260504013037 | 58 | 248 | 4.0 | 8.0 | 0.00 | 0.00 | 0.00 | 36 | 1012.4 |
| 20260504012518 | 58 | 248 | 3.0 | 6.0 | 0.00 | 0.00 | 0.00 | 36 | 1012.3 |
| 20260504012017 | 58 | 248 | 4.0 | 8.0 | 0.00 | 0.00 | 0.00 | 35 | 1012.3 |
| 20260504011558 | 58 | 248 | 3.0 | 5.0 | 0.00 | 0.00 | 0.00 | 35 | 1012.2 |
| 20260504011038 | 58 | 248 | 3.0 | 6.0 | 0.00 | 0.00 | 0.00 | 35 | 1012.1 |
| 20260504010517 | 58 | 248 | 2.0 | 5.0 | 0.00 | 0.00 | 0.00 | 35 | 1012.1 |
| 20260504010018 | 59 | 248 | 4.0 | 8.0 | 0.00 | 0.00 | 0.00 | 34 | 1012.0 |
| 20260504005517 | 59 | 248 | 3.0 | 6.0 | 0.00 | 0.00 | 0.00 | 34 | 1012.0 |
| 20260504005016 | 59 | 225 | 2.0 | 7.0 | 0.00 | 0.00 | 0.00 | 33 | 1011.9 |
| 20260504004517 | 59 | 248 | 2.0 | 8.0 | 0.00 | 0.00 | 0.00 | 33 | 1011.9 |
| 20260504004018 | 59 | 248 | 2.0 | 6.0 | 0.00 | 0.00 | 0.00 | 33 | 1011.8 |
| 20260504003517 | 59 | 248 | 3.0 | 6.0 | 0.00 | 0.00 | 0.00 | 33 | 1011.7 |
| 20260504003017 | 59 | 248 | 3.0 | 7.0 | 0.00 | 0.00 | 0.00 | 33 | 1011.6 |
| 20260504002517 | 59 | 248 | 3.0 | 7.0 | 0.00 | 0.00 | 0.00 | 33 | 1011.6 |
| 20260504002017 | 59 | 248 | 3.0 | 7.0 | 0.00 | 0.00 | 0.00 | 32 | 1011.5 |
| 20260504001517 | 60 | 225 | 3.0 | 9.0 | 0.00 | 0.00 | 0.00 | 32 | 1011.4 |
| 20260504001017 | 60 | 248 | 3.0 | 7.0 | 0.00 | 0.00 | 0.00 | 32 | 1011.3 |
| 20260504000516 | 60 | 270 | 2.0 | 6.0 | 0.00 | 0.00 | 0.00 | 31 | 1011.2 |
| 20260504000017 | 60 | 248 | 5.0 | 9.0 | 0.00 | 0.00 | 0.00 | 31 | 1011.2 |
| 20260503235516 | 60 | 270 | 4.0 | 10.0 | 0.00 | 0.00 | 0.00 | 31 | 1011.2 |
| 20260503235017 | 61 | 270 | 5.0 | 11.0 | 0.00 | 0.00 | 0.00 | 30 | 1011.2 |
| 20260503234517 | 61 | 248 | 4.0 | 10.0 | 0.00 | 0.00 | 0.00 | 30 | 1011.0 |
| 20260503234017 | 61 | 270 | 4.0 | 10.0 | 0.00 | 0.00 | 0.00 | 30 | 1011.0 |
| 20260503233517 | 61 | 270 | 3.0 | 7.0 | 0.00 | 0.00 | 0.00 | 31 | 1010.9 |
| 20260503233017 | 61 | 270 | 4.0 | 10.0 | 0.00 | 0.00 | 0.00 | 31 | 1010.9 |
| 20260503232518 | 61 | 315 | 5.0 | 10.0 | 0.00 | 0.00 | 0.00 | 29 | 1010.8 |
| 20260503232016 | 61 | 293 | 3.0 | 10.0 | 0.00 | 0.00 | 0.00 | 29 | 1010.8 |
| 20260503231516 | 62 | 270 | 3.0 | 8.0 | 0.00 | 0.00 | 0.00 | 29 | 1010.7 |
| 20260503231016 | 62 | 315 | 4.0 | 11.0 | 0.00 | 0.00 | 0.00 | 29 | 1010.7 |
| 20260503230517 | 62 | 315 | 4.0 | 11.0 | 0.00 | 0.00 | 0.00 | 30 | 1010.6 |
| 20260503230016 | 62 | 338 | 3.0 | 6.0 | 0.00 | 0.00 | 0.00 | 30 | 1010.7 |
| 20260503225539 | 62 | 270 | 3.0 | 7.0 | 0.00 | 0.00 | 0.00 | 29 | 1010.7 |
| 20260503225018 | 62 | 315 | 5.0 | 14.0 | 0.00 | 0.00 | 0.00 | 28 | 1010.6 |
| 20260503224517 | 62 | 315 | 5.0 | 13.0 | 0.00 | 0.00 | 0.00 | 27 | 1010.6 |
| 20260503224017 | 62 | 293 | 6.0 | 11.0 | 0.00 | 0.00 | 0.00 | 27 | 1010.6 |
| 20260503223518 | 62 | 0 | 6.0 | 12.0 | 0.00 | 0.00 | 0.00 | 27 | 1010.6 |
| 20260503223018 | 62 | 293 | 6.0 | 11.0 | 0.00 | 0.00 | 0.00 | 27 | 1010.5 |
| 20260503222517 | 62 | 338 | 7.0 | 16.0 | 0.00 | 0.00 | 0.00 | 26 | 1010.5 |
| 20260503222016 | 62 | 338 | 5.0 | 13.0 | 0.00 | 0.00 | 0.00 | 27 | 1010.4 |
| 20260503221516 | 62 | 293 | 5.0 | 13.0 | 0.00 | 0.00 | 0.00 | 27 | 1010.5 |
| 20260503221036 | 62 | 315 | 7.0 | 15.0 | 0.00 | 0.00 | 0.00 | 26 | 1010.4 |
| 20260503220516 | 62 | 315 | 6.0 | 13.0 | 0.00 | 0.00 | 0.00 | 26 | 1010.5 |
| 20260503220017 | 62 | 270 | 7.0 | 16.0 | 0.00 | 0.00 | 0.00 | 26 | 1010.6 |
| 20260503215517 | 62 | 270 | 7.0 | 22.0 | 0.00 | 0.00 | 0.00 | 26 | 1010.6 |
| 20260503215036 | 62 | 293 | 7.0 | 11.0 | 0.00 | 0.00 | 0.00 | 27 | 1010.6 |
| 20260503214516 | 62 | 270 | 8.0 | 20.0 | 0.00 | 0.00 | 0.00 | 28 | 1010.6 |
| 20260503214017 | 62 | 270 | 8.0 | 18.0 | 0.00 | 0.00 | 0.00 | 27 | 1010.5 |
| 20260503213516 | 62 | 315 | 7.0 | 15.0 | 0.00 | 0.00 | 0.00 | 26 | 1010.6 |
| 20260503213037 | 62 | 315 | 7.0 | 17.0 | 0.00 | 0.00 | 0.00 | 27 | 1010.5 |
| 20260503212517 | 62 | 315 | 8.0 | 15.0 | 0.00 | 0.00 | 0.00 | 27 | 1010.6 |
| 20260503212016 | 62 | 338 | 7.0 | 13.0 | 0.00 | 0.00 | 0.00 | 27 | 1010.5 |
| 20260503211516 | 62 | 338 | 8.0 | 20.0 | 0.00 | 0.00 | 0.00 | 27 | 1010.5 |
| 20260503211036 | 62 | 270 | 7.0 | 16.0 | 0.00 | 0.00 | 0.00 | 28 | 1010.5 |
| 20260503210518 | 62 | 270 | 9.0 | 18.0 | 0.00 | 0.00 | 0.00 | 27 | 1010.5 |
| 20260503210016 | 62 | 315 | 7.0 | 17.0 | 0.00 | 0.00 | 0.00 | 28 | 1010.4 |
| 20260503205516 | 62 | 315 | 8.0 | 14.0 | 0.00 | 0.00 | 0.00 | 27 | 1010.4 |
| 20260503205018 | 62 | 315 | 7.0 | 18.0 | 0.00 | 0.00 | 0.00 | 28 | 1010.4 |
| 20260503204516 | 61 | 315 | 8.0 | 18.0 | 0.00 | 0.00 | 0.00 | 27 | 1010.4 |
| 20260503204016 | 61 | 270 | 10.0 | 25.0 | 0.00 | 0.00 | 0.00 | 27 | 1010.4 |
| 20260503203517 | 62 | 315 | 7.0 | 17.0 | 0.00 | 0.00 | 0.00 | 28 | 1010.4 |
| 20260503203018 | 62 | 315 | 8.0 | 16.0 | 0.00 | 0.00 | 0.00 | 27 | 1010.4 |
| 20260503202538 | 62 | 270 | 9.0 | 20.0 | 0.00 | 0.00 | 0.00 | 29 | 1010.5 |
| 20260503202016 | 62 | 270 | 8.0 | 18.0 | 0.00 | 0.00 | 0.00 | 27 | 1010.5 |
| 20260503201537 | 62 | 270 | 8.0 | 16.0 | 0.00 | 0.00 | 0.00 | 27 | 1010.6 |
| 20260503201017 | 62 | 315 | 6.0 | 17.0 | 0.00 | 0.00 | 0.00 | 29 | 1010.6 |
| 20260503200517 | 61 | 315 | 6.0 | 14.0 | 0.00 | 0.00 | 0.00 | 28 | 1010.6 |
| 20260503200016 | 61 | 338 | 7.0 | 12.0 | 0.00 | 0.00 | 0.00 | 28 | 1010.7 |
| 20260503195538 | 61 | 270 | 10.0 | 18.0 | 0.00 | 0.00 | 0.00 | 28 | 1010.8 |
| 20260503195017 | 61 | 270 | 8.0 | 19.0 | 0.00 | 0.00 | 0.00 | 28 | 1010.7 |
| 20260503194537 | 61 | 270 | 9.0 | 21.0 | 0.00 | 0.00 | 0.00 | 29 | 1010.8 |
| 20260503194016 | 61 | 315 | 7.0 | 15.0 | 0.00 | 0.00 | 0.00 | 30 | 1010.8 |
| 20260503193516 | 61 | 293 | 8.0 | 16.0 | 0.00 | 0.00 | 0.00 | 29 | 1010.8 |
| 20260503193059 | 61 | 315 | 6.0 | 14.0 | 0.00 | 0.00 | 0.00 | 29 | 1010.9 |
| 20260503192517 | 61 | 315 | 8.0 | 17.0 | 0.00 | 0.00 | 0.00 | 31 | 1010.9 |
| 20260503192016 | 60 | 315 | 8.0 | 16.0 | 0.00 | 0.00 | 0.00 | 30 | 1011.0 |
| 20260503191516 | 60 | 338 | 6.0 | 12.0 | 0.00 | 0.00 | 0.00 | 30 | 1011.0 |
| 20260503191016 | 59 | 315 | 7.0 | 15.0 | 0.00 | 0.00 | 0.00 | 31 | 1011.1 |
| 20260503190516 | 60 | 270 | 8.0 | 19.0 | 0.00 | 0.00 | 0.00 | 30 | 1011.1 |
| 20260503190017 | 59 | 315 | 7.0 | 14.0 | 0.00 | 0.00 | 0.00 | 32 | 1011.1 |
| 20260503185516 | 59 | 338 | 6.0 | 13.0 | 0.00 | 0.00 | 0.00 | 31 | 1011.1 |
| 20260503185037 | 58 | 270 | 9.0 | 23.0 | 0.00 | 0.00 | 0.00 | 32 | 1011.4 |
| 20260503184516 | 58 | 270 | 8.0 | 19.0 | 0.00 | 0.00 | 0.00 | 32 | 1011.5 |
| 20260503184037 | 58 | 270 | 9.0 | 20.0 | 0.00 | 0.00 | 0.00 | 33 | 1011.6 |
| 20260503183516 | 57 | 270 | 6.0 | 13.0 | 0.00 | 0.00 | 0.00 | 34 | 1011.6 |
| 20260503183016 | 57 | 315 | 7.0 | 18.0 | 0.00 | 0.00 | 0.00 | 35 | 1011.6 |
| 20260503182516 | 57 | 270 | 7.0 | 16.0 | 0.00 | 0.00 | 0.00 | 34 | 1011.7 |
| 20260503182036 | 57 | 315 | 9.0 | 22.0 | 0.00 | 0.00 | 0.00 | 34 | 1011.7 |
| 20260503181516 | 57 | 315 | 7.0 | 16.0 | 0.00 | 0.00 | 0.00 | 34 | 1011.7 |
| 20260503181016 | 57 | 315 | 9.0 | 17.0 | 0.00 | 0.00 | 0.00 | 34 | 1011.6 |
| 20260503180516 | 57 | 248 | 10.0 | 22.0 | 0.00 | 0.00 | 0.00 | 34 | 1011.7 |
| 20260503180016 | 57 | 270 | 10.0 | 22.0 | 0.00 | 0.00 | 0.00 | 35 | 1011.7 |
| 20260503175516 | 57 | 315 | 9.0 | 21.0 | 0.00 | 0.00 | 0.00 | 35 | 1011.6 |
| 20260503175016 | 57 | 270 | 6.0 | 14.0 | 0.00 | 0.00 | 0.00 | 37 | 1011.6 |
| 20260503174516 | 57 | 293 | 8.0 | 15.0 | 0.00 | 0.00 | 0.00 | 36 | 1011.7 |
| 20260503174016 | 57 | 293 | 7.0 | 14.0 | 0.00 | 0.00 | 0.00 | 35 | 1011.6 |
| 20260503173516 | 57 | 315 | 7.0 | 14.0 | 0.00 | 0.00 | 0.00 | 36 | 1011.7 |
| 20260503173016 | 57 | 315 | 7.0 | 18.0 | 0.00 | 0.00 | 0.00 | 36 | 1011.7 |
| 20260503172516 | 58 | 270 | 7.0 | 14.0 | 0.00 | 0.00 | 0.00 | 35 | 1011.7 |
| 20260503172016 | 58 | 270 | 8.0 | 14.0 | 0.00 | 0.00 | 0.00 | 34 | 1011.8 |
| 20260503171517 | 58 | 270 | 8.0 | 15.0 | 0.00 | 0.00 | 0.00 | 35 | 1011.7 |
| 20260503171016 | 57 | 270 | 7.0 | 15.0 | 0.00 | 0.00 | 0.00 | 36 | 1011.8 |
| 20260503170516 | 56 | 315 | 6.0 | 14.0 | 0.00 | 0.00 | 0.00 | 37 | 1011.8 |
| 20260503150516 | 54 | 315 | 6.0 | 13.0 | 0.00 | 0.00 | 0.00 | 36 | 1012.1 |
| 20260503131016 | 50 | 338 | 5.0 | 12.0 | 0.00 | 0.00 | 0.00 | 51 | 1012.3 |
| 20260503130517 | 50 | 315 | 6.0 | 14.0 | 0.00 | 0.00 | 0.00 | 51 | 1012.4 |
| 20260503110516 | 47 | 315 | 7.0 | 14.0 | 0.00 | 0.00 | 0.00 | 55 | 1011.5 |
| 20260503081517 | 49 | 0 | 3.0 | 11.0 | 0.00 | 0.01 | 0.00 | 51 | 1010.3 |
| 20260503081017 | 49 | 23 | 3.0 | 9.0 | 0.00 | 0.01 | 0.00 | 51 | 1010.3 |
| 20260503080558 | 49 | 0 | 3.0 | 11.0 | 0.00 | 0.01 | 0.00 | 51 | 1010.3 |
| 20260503072516 | 50 | 338 | 2.0 | 6.0 | 0.00 | 0.01 | 0.00 | 50 | 1010.2 |
| 20260503072039 | 50 | 23 | 2.0 | 9.0 | 0.00 | 0.01 | 0.00 | 50 | 1010.3 |
| 20260503071538 | 50 | 338 | 3.0 | 10.0 | 0.00 | 0.01 | 0.00 | 50 | 1010.3 |
| 20260503071017 | 51 | 0 | 3.0 | 11.0 | 0.00 | 0.01 | 0.00 | 49 | 1010.2 |
| 20260503070537 | 51 | 23 | 3.0 | 8.0 | 0.00 | 0.01 | 0.00 | 49 | 1010.2 |